Retour au catalogue

OPS 7323

DMSP 5B F3

ActifMétéoSSO
NORAD 6275·PAYLOAD·🇺🇸 United States

Lancé Nov 9, 1972 depuis Vandenberg Space Force Base

Loading…

Prochains Passages (prochaines 24 heures)

TLE

FraisSource: Space-Track

Époque: Sep 14, 2026, 10:47 UTC

1 06275U 72089A   26257.44932066  .00000179  00000-0  85528-4 0  9991
2 06275  98.5421  62.4113 0035647  59.2902 301.1785 14.30003293797430

Suivez OPS 7323 en temps réel avec AllMySat

Download on the App Store